PHRJV EHSE-EHSE

Flight info

Callsign PHRJV
Flight time 0h 42m
Altitude 2000
Route VFR
Aircraft PC12/L-SDFGRWY/S

Departure

Time 2026-04-14 18:37
Airport Breda International Airport (EHSE)

Arrival

Time 2026-04-14 19:19
Airport Breda International Airport (EHSE)
Time Latitude Longitude Altitude Speed Heading
2026-04-14 17:58 51.55450 4.55430 30 ft 0 kts 335°
2026-04-14 18:11 51.55458 4.55424 31 ft 7 kts 335°
2026-04-14 18:11 51.55448 4.55327 31 ft 13 kts 246°
2026-04-14 18:11 51.55410 4.55182 34 ft 17 kts 248°
2026-04-14 18:12 51.55372 4.55043 34 ft 10 kts 246°
2026-04-14 18:12 51.55337 4.54919 33 ft 10 kts 247°
2026-04-14 18:12 51.55320 4.54857 32 ft 0 kts 249°
2026-04-14 18:12 51.55342 4.54810 32 ft 13 kts 338°
2026-04-14 18:13 51.55405 4.54793 34 ft 9 kts 68°
2026-04-14 18:13 51.55431 4.54887 33 ft 7 kts 45°
2026-04-14 18:13 51.55460 4.54911 34 ft 3 kts 101°
2026-04-14 18:13 51.55457 4.54915 34 ft 0 kts 159°
2026-04-14 18:33 51.55447 4.54950 35 ft 11 kts 75°
2026-04-14 18:34 51.55643 4.55666 33 ft 19 kts 66°
2026-04-14 18:34 51.55683 4.55815 33 ft 13 kts 65°
2026-04-14 18:34 51.55691 4.55848 34 ft 0 kts 100°
2026-04-14 18:35 51.55691 4.55851 34 ft 0 kts 102°
2026-04-14 18:35 51.55669 4.55877 34 ft 8 kts 157°
2026-04-14 18:35 51.55646 4.55869 35 ft 0 kts 246°
2026-04-14 18:36 51.55596 4.55690 32 ft 53 kts 246°
2026-04-14 18:36 51.55361 4.54844 103 ft 102 kts 245°
2026-04-14 18:36 51.55011 4.53823 416 ft 106 kts 248°
2026-04-14 18:37 51.54723 4.52698 705 ft 108 kts 239°
2026-04-14 18:37 51.54046 4.52436 877 ft 120 kts 149°
2026-04-14 18:37 51.53880 4.53730 883 ft 133 kts 68°
2026-04-14 18:37 51.54354 4.54939 752 ft 121 kts 57°
2026-04-14 18:38 51.54812 4.55984 689 ft 111 kts 56°
2026-04-14 18:38 51.55215 4.56941 664 ft 106 kts 58°
2026-04-14 18:38 51.55511 4.57654 628 ft 101 kts 54°
2026-04-14 18:38 51.56085 4.57601 519 ft 98 kts 285°
2026-04-14 18:39 51.55839 4.56619 213 ft 94 kts 251°
2026-04-14 18:39 51.55594 4.55678 34 ft 86 kts 245°
2026-04-14 18:39 51.55361 4.54828 109 ft 93 kts 245°
2026-04-14 18:39 51.55024 4.53902 426 ft 100 kts 243°
2026-04-14 18:40 51.54707 4.52875 687 ft 107 kts 240°
2026-04-14 18:40 51.54234 4.51937 817 ft 116 kts 197°
2026-04-14 18:40 51.53610 4.52575 890 ft 127 kts 102°
2026-04-14 18:40 51.53933 4.53905 854 ft 132 kts 57°
2026-04-14 18:41 51.54434 4.55119 773 ft 130 kts 59°
2026-04-14 18:41 51.54905 4.56336 715 ft 130 kts 60°
2026-04-14 18:41 51.55275 4.57347 699 ft 130 kts 62°
2026-04-14 18:41 51.55866 4.58112 628 ft 109 kts 347°
2026-04-14 18:42 51.56034 4.57191 429 ft 100 kts 237°
2026-04-14 18:42 51.55742 4.56216 119 ft 95 kts 244°
2026-04-14 18:42 51.55575 4.55610 32 ft 82 kts 245°
2026-04-14 18:42 51.55334 4.54752 176 ft 90 kts 243°
2026-04-14 18:43 51.55009 4.53896 510 ft 97 kts 250°
2026-04-14 18:43 51.54821 4.52810 724 ft 107 kts 250°
2026-04-14 18:43 51.54400 4.51894 879 ft 108 kts 188°
2026-04-14 18:43 51.53895 4.52629 920 ft 118 kts 96°
2026-04-14 18:44 51.54141 4.53855 845 ft 112 kts 65°
2026-04-14 18:44 51.54484 4.54952 708 ft 109 kts 64°
2026-04-14 18:44 51.54834 4.56019 677 ft 108 kts 63°
2026-04-14 18:44 51.55174 4.57079 699 ft 110 kts 66°
2026-04-14 18:45 51.55555 4.58115 649 ft 107 kts 33°
2026-04-14 18:45 51.56104 4.57795 551 ft 98 kts 271°
2026-04-14 18:45 51.55897 4.56798 308 ft 92 kts 245°
2026-04-14 18:45 51.55649 4.55880 51 ft 84 kts 244°
2026-04-14 18:46 51.55434 4.55102 42 ft 79 kts 244°
2026-04-14 18:46 51.55119 4.54290 318 ft 94 kts 237°
2026-04-14 18:46 51.54886 4.53220 613 ft 102 kts 250°
2026-04-14 18:46 51.54708 4.52088 949 ft 111 kts 265°
2026-04-14 18:47 51.55012 4.50829 1265 ft 139 kts 306°
2026-04-14 18:47 51.55843 4.49813 1489 ft 158 kts 327°
2026-04-14 18:47 51.56832 4.49088 1685 ft 158 kts 346°
2026-04-14 18:47 51.57870 4.49625 1739 ft 163 kts 47°
2026-04-14 18:48 51.58268 4.51248 1790 ft 154 kts 90°
2026-04-14 18:48 51.58382 4.52718 1732 ft 127 kts 82°
2026-04-14 18:48 51.58542 4.54139 1706 ft 130 kts 82°
2026-04-14 18:48 51.58759 4.55567 1672 ft 133 kts 76°
2026-04-14 18:49 51.59367 4.56676 1547 ft 138 kts 21°
2026-04-14 18:49 51.60269 4.56481 1476 ft 135 kts 319°
2026-04-14 18:49 51.60606 4.55173 1450 ft 124 kts 263°
2026-04-14 18:49 51.60349 4.53895 1450 ft 116 kts 241°
2026-04-14 18:50 51.60001 4.52778 1453 ft 110 kts 241°
2026-04-14 18:50 51.59659 4.51665 1369 ft 109 kts 241°
2026-04-14 18:50 51.59340 4.50652 1403 ft 100 kts 239°
2026-04-14 18:50 51.59072 4.49594 1444 ft 104 kts 252°
2026-04-14 18:51 51.59178 4.48430 1546 ft 110 kts 292°
2026-04-14 18:51 51.59618 4.47396 1619 ft 113 kts 303°
2026-04-14 18:51 51.60094 4.46353 1640 ft 118 kts 302°
2026-04-14 18:51 51.60580 4.45263 1645 ft 120 kts 303°
2026-04-14 18:52 51.61077 4.44186 1659 ft 117 kts 303°
2026-04-14 18:52 51.61563 4.43117 1683 ft 118 kts 303°
2026-04-14 18:52 51.62048 4.42058 1685 ft 117 kts 303°
2026-04-14 18:52 51.62517 4.41023 1669 ft 114 kts 303°
2026-04-14 18:53 51.62987 4.39992 1625 ft 115 kts 303°
2026-04-14 18:53 51.63462 4.38942 1564 ft 116 kts 303°
2026-04-14 18:53 51.63930 4.37889 1559 ft 114 kts 301°
2026-04-14 18:53 51.64377 4.36830 1515 ft 115 kts 301°
2026-04-14 18:54 51.64824 4.35756 1464 ft 115 kts 301°
2026-04-14 18:54 51.65262 4.34684 1397 ft 116 kts 299°
2026-04-14 18:54 51.65694 4.33615 1368 ft 114 kts 301°
2026-04-14 18:54 51.66137 4.32553 1314 ft 115 kts 300°
2026-04-14 18:55 51.66590 4.31498 1301 ft 113 kts 302°
2026-04-14 18:55 51.67026 4.30455 1283 ft 112 kts 299°
2026-04-14 18:55 51.67457 4.29396 1260 ft 113 kts 299°
2026-04-14 18:55 51.67882 4.28347 1298 ft 111 kts 298°
2026-04-14 18:56 51.68297 4.27293 1335 ft 111 kts 298°
2026-04-14 18:56 51.68679 4.26223 1379 ft 111 kts 294°
2026-04-14 18:56 51.69037 4.25123 1369 ft 111 kts 293°
2026-04-14 18:56 51.69380 4.24000 1395 ft 113 kts 292°
2026-04-14 18:57 51.69725 4.22854 1422 ft 112 kts 291°
2026-04-14 18:57 51.70049 4.21770 1423 ft 107 kts 292°
2026-04-14 18:57 51.70362 4.20675 1400 ft 108 kts 291°
2026-04-14 18:57 51.70653 4.19562 1379 ft 108 kts 288°
2026-04-14 18:58 51.70917 4.18436 1368 ft 105 kts 287°
2026-04-14 18:58 51.71167 4.17342 1432 ft 107 kts 287°
2026-04-14 18:58 51.71426 4.16191 1486 ft 111 kts 286°
2026-04-14 18:58 51.71672 4.14990 1502 ft 113 kts 283°
2026-04-14 18:59 51.71897 4.13778 1537 ft 113 kts 283°
2026-04-14 18:59 51.72116 4.12547 1542 ft 115 kts 282°
2026-04-14 18:59 51.72344 4.11298 1529 ft 116 kts 283°
2026-04-14 18:59 51.72568 4.10045 1491 ft 118 kts 281°
2026-04-14 19:00 51.72768 4.08782 1486 ft 115 kts 281°
2026-04-14 19:00 51.72990 4.07531 1483 ft 117 kts 283°
2026-04-14 19:00 51.73160 4.06255 1468 ft 116 kts 276°
2026-04-14 19:00 51.73268 4.04965 1471 ft 115 kts 273°
2026-04-14 19:01 51.73014 4.03811 1436 ft 121 kts 210°
2026-04-14 19:01 51.72199 4.04062 1462 ft 134 kts 143°
2026-04-14 19:01 51.71540 4.05265 1438 ft 156 kts 132°
2026-04-14 19:01 51.70844 4.06802 1562 ft 181 kts 122°
2026-04-14 19:02 51.70215 4.08587 1692 ft 188 kts 122°
2026-04-14 19:02 51.69549 4.10455 1786 ft 192 kts 122°
2026-04-14 19:02 51.68888 4.12298 1862 ft 193 kts 122°
2026-04-14 19:02 51.68188 4.14146 1944 ft 194 kts 123°
2026-04-14 19:03 51.67476 4.16003 1995 ft 195 kts 123°
2026-04-14 19:03 51.66788 4.17886 2036 ft 195 kts 122°
2026-04-14 19:03 51.66088 4.19772 2076 ft 196 kts 123°
2026-04-14 19:03 51.65375 4.21641 2104 ft 195 kts 123°
2026-04-14 19:04 51.64647 4.23526 1963 ft 200 kts 123°
2026-04-14 19:04 51.63922 4.25423 1922 ft 197 kts 123°
2026-04-14 19:04 51.63211 4.27300 1899 ft 197 kts 123°
2026-04-14 19:04 51.62528 4.29236 1769 ft 201 kts 119°
2026-04-14 19:05 51.61961 4.31244 1902 ft 193 kts 114°
2026-04-14 19:05 51.61803 4.33380 1873 ft 201 kts 78°
2026-04-14 19:05 51.62322 4.35366 1902 ft 187 kts 66°
2026-04-14 19:05 51.62882 4.37244 1808 ft 189 kts 64°
2026-04-14 19:06 51.63963 4.38159 1844 ft 185 kts 349°
2026-04-14 19:06 51.64806 4.36828 1906 ft 179 kts 279°
2026-04-14 19:06 51.64543 4.34945 1917 ft 176 kts 235°
2026-04-14 19:06 51.63589 4.33846 2074 ft 169 kts 192°
2026-04-14 19:07 51.62535 4.34488 2143 ft 175 kts 131°
2026-04-14 19:07 51.61953 4.36006 2109 ft 150 kts 124°
2026-04-14 19:07 51.61458 4.37275 2048 ft 129 kts 128°
2026-04-14 19:07 51.60942 4.38474 1967 ft 124 kts 128°
2026-04-14 19:08 51.60482 4.39560 1886 ft 116 kts 128°
2026-04-14 19:08 51.60031 4.40649 1836 ft 117 kts 121°
2026-04-14 19:08 51.59853 4.41928 1851 ft 117 kts 98°
2026-04-14 19:08 51.59779 4.43190 1782 ft 115 kts 98°
2026-04-14 19:09 51.59711 4.44434 1771 ft 104 kts 98°
2026-04-14 19:09 51.59615 4.45558 1713 ft 101 kts 115°
2026-04-14 19:09 51.59207 4.46449 1809 ft 100 kts 137°
2026-04-14 19:09 51.58733 4.47271 1858 ft 99 kts 135°
2026-04-14 19:10 51.58289 4.48133 1864 ft 102 kts 129°
2026-04-14 19:10 51.57891 4.49093 1863 ft 102 kts 126°
2026-04-14 19:10 51.57522 4.50066 1860 ft 103 kts 125°
2026-04-14 19:10 51.57132 4.51055 1819 ft 106 kts 126°
2026-04-14 19:11 51.56731 4.52072 1775 ft 108 kts 125°
2026-04-14 19:11 51.56335 4.53095 1755 ft 107 kts 126°
2026-04-14 19:11 51.55928 4.54106 1744 ft 108 kts 126°
2026-04-14 19:11 51.55520 4.55122 1754 ft 108 kts 126°
2026-04-14 19:12 51.55133 4.56151 1783 ft 108 kts 124°
2026-04-14 19:12 51.54764 4.57187 1760 ft 104 kts 130°
2026-04-14 19:12 51.53570 4.58455 1473 ft 105 kts 154°
2026-04-14 19:13 51.52896 4.58925 1363 ft 108 kts 182°
2026-04-14 19:13 51.52314 4.58244 1243 ft 110 kts 241°
2026-04-14 19:13 51.52035 4.57092 1150 ft 112 kts 247°
2026-04-14 19:13 51.51923 4.55890 1161 ft 115 kts 283°
2026-04-14 19:14 51.51609 4.54985 1293 ft 123 kts 180°
2026-04-14 19:14 51.50753 4.54775 1643 ft 131 kts 211°
2026-04-14 19:14 51.50434 4.53441 1884 ft 144 kts 282°
2026-04-14 19:14 51.51101 4.52295 1733 ft 143 kts 330°
2026-04-14 19:15 51.52087 4.51753 1612 ft 159 kts 355°
2026-04-14 19:15 51.53126 4.52329 1503 ft 152 kts 34°
2026-04-14 19:15 51.53857 4.53345 1239 ft 130 kts 47°
2026-04-14 19:15 51.54446 4.54408 1049 ft 130 kts 54°
2026-04-14 19:16 51.54839 4.55684 994 ft 127 kts 72°
2026-04-14 19:16 51.55146 4.56986 976 ft 123 kts 74°
2026-04-14 19:16 51.55419 4.58259 989 ft 118 kts 54°
2026-04-14 19:16 51.56084 4.58452 1008 ft 99 kts 319°
2026-04-14 19:17 51.56110 4.57510 919 ft 93 kts 232°
2026-04-14 19:17 51.55751 4.56603 930 ft 100 kts 239°
2026-04-14 19:17 51.55410 4.55632 957 ft 106 kts 199°
2026-04-14 19:17 51.54951 4.56421 950 ft 125 kts 86°
2026-04-14 19:18 51.55379 4.57577 814 ft 113 kts 51°
2026-04-14 19:18 51.56011 4.57534 536 ft 103 kts 285°
2026-04-14 19:18 51.55820 4.56511 220 ft 92 kts 245°
2026-04-14 19:18 51.55578 4.55618 32 ft 79 kts 245°
2026-04-14 19:19 51.55425 4.55066 37 ft 42 kts 246°
2026-04-14 19:19 51.55363 4.54844 35 ft 9 kts 247°
2026-04-14 19:19 51.55325 4.54826 35 ft 7 kts 143°
2026-04-14 19:19 51.55337 4.54918 35 ft 12 kts 65°
2026-04-14 19:20 51.55364 4.55016 37 ft 11 kts 68°
2026-04-14 19:20 51.55387 4.55101 38 ft 4 kts 67°
2026-04-14 19:20 51.55407 4.55175 37 ft 8 kts 68°
2026-04-14 19:20 51.55436 4.55274 35 ft 9 kts 65°
2026-04-14 19:21 51.55452 4.55335 34 ft 10 kts 70°